Вернуться в каталог

THOR AGENA B DEB

АктивенLEO
NORAD 1948·DEBRIS·🇺🇸 United States

Запущен Nov 29, 1965 с Vandenberg Space Force Base

Loading…

Ближайшие Пролёты (ближайшие 24 часа)

TLE

СвежийSource: Space-Track

Эпоха: Sep 14, 2026, 04:45 UTC

1 01948U 65098F   26257.19814794  .00007171  00000-0  12805-2 0  9999
2 01948  79.8467 182.7323 0748778  29.1898 334.9002 13.61921965821284

Отслеживайте THOR AGENA B DEB в реальном времени с AllMySat

Download on the App Store